LRBS Weather Reports


Display with metric or nautical units.
time (UTC)temp
F
wind
direction
speed
MPH
gust
MPH
rain 1hr
in
rain 24hr
in
rain mn
in
humidity
%
barometer
mb
20260831113314 86 60 7.0 0.0 0.00 0.00 0.00 35 1017.0
20260831111834 88 70 9.0 0.0 0.00 0.00 0.00 35 1017.0
20260831110314 88 70 9.0 0.0 0.00 0.00 0.00 35 1017.0
20260831104815 86 80 7.0 0.0 0.00 0.00 0.00 38 1017.0
20260831103314 86 80 7.0 0.0 0.00 0.00 0.00 38 1017.0
20260831101814 86 90 7.0 20.0 0.00 0.00 0.00 35 1018.0
20260831100314 86 90 7.0 20.0 0.00 0.00 0.00 35 1018.0
20260831094814 84 80 6.0 0.0 0.00 0.00 0.00 35 1018.0
20260831093429 84 80 6.0 0.0 0.00 0.00 0.00 35 1018.0
20260831091814 84 100 8.0 0.0 0.00 0.00 0.00 33 1018.0
20260831090314 84 100 8.0 0.0 0.00 0.00 0.00 33 1018.0
20260831084814 82 60 8.0 0.0 0.00 0.00 0.00 37 1018.0
20260831083314 82 60 8.0 0.0 0.00 0.00 0.00 37 1018.0
20260831081929 82 90 8.0 0.0 0.00 0.00 0.00 40 1018.0
20260831080314 82 90 8.0 0.0 0.00 0.00 0.00 40 1018.0
20260831074830 79 60 7.0 0.0 0.00 0.00 0.00 45 1018.0
20260831073314 79 60 7.0 0.0 0.00 0.00 0.00 45 1018.0
20260831071843 77 50 6.0 0.0 0.00 0.00 0.00 51 1018.0
20260831070315 77 50 6.0 0.0 0.00 0.00 0.00 51 1018.0
20260831064814 73 70 5.0 0.0 0.00 0.00 0.00 57 1018.0
20260831063314 73 70 5.0 0.0 0.00 0.00 0.00 57 1018.0
20260831061815 70 50 5.0 0.0 0.00 0.00 0.00 64 1018.0
20260831060314 70 50 5.0 0.0 0.00 0.00 0.00 64 1018.0
20260831054815 68 70 6.0 0.0 0.00 0.00 0.00 69 1018.0
20260831053314 68 70 6.0 0.0 0.00 0.00 0.00 69 1018.0
20260831051814 66 60 6.0 0.0 0.00 0.00 0.00 78 1018.0
20260831050314 66 60 6.0 0.0 0.00 0.00 0.00 78 1018.0
20260831044816 63 80 3.0 0.0 0.00 0.00 0.00 88 1018.0
20260831043318 63 80 3.0 0.0 0.00 0.00 0.00 88 1018.0
20260831041814 63 80 3.0 0.0 0.00 0.00 0.00 83 1018.0
20260831040314 63 80 3.0 0.0 0.00 0.00 0.00 83 1018.0
20260831034814 61 40 2.0 0.0 0.00 0.00 0.00 88 1018.0
20260831033314 61 40 2.0 0.0 0.00 0.00 0.00 88 1018.0
20260831031814 63 20 1.0 0.0 0.00 0.00 0.00 83 1018.0
20260831030315 63 20 1.0 0.0 0.00 0.00 0.00 83 1018.0
20260831024814 63 60 3.0 0.0 0.00 0.00 0.00 83 1018.0
20260831023322 63 60 3.0 0.0 0.00 0.00 0.00 83 1018.0
20260831021814 63 0 0.0 0.0 0.00 0.00 0.00 83 1018.0
20260831020316 63 0 0.0 0.0 0.00 0.00 0.00 83 1018.0
20260831014814 63 1.0 0.0 0.00 0.00 0.00 83 1018.0
20260831013313 63 1.0 0.0 0.00 0.00 0.00 83 1018.0
20260831011815 66 0 0.0 0.0 0.00 0.00 0.00 73 1018.0
20260831010314 66 0 0.0 0.0 0.00 0.00 0.00 73 1018.0
20260831004814 68 10 5.0 0.0 0.00 0.00 0.00 69 1018.0
20260831003314 68 10 5.0 0.0 0.00 0.00 0.00 69 1018.0
20260831001814 66 50 5.0 0.0 0.00 0.00 0.00 73 1018.0
20260831000314 66 50 5.0 0.0 0.00 0.00 0.00 73 1018.0
20260830234814 68 80 5.0 0.0 0.00 0.00 0.00 69 1018.0
20260830233314 68 80 5.0 0.0 0.00 0.00 0.00 69 1018.0
20260830231815 68 80 6.0 0.0 0.00 0.00 0.00 73 1018.0
20260830230315 68 80 6.0 0.0 0.00 0.00 0.00 73 1018.0
20260830224814 68 80 5.0 0.0 0.00 0.00 0.00 73 1018.0
20260830223314 68 80 5.0 0.0 0.00 0.00 0.00 73 1018.0
20260830221813 70 70 6.0 0.0 0.00 0.00 0.00 69 1018.0
20260830220314 70 70 6.0 0.0 0.00 0.00 0.00 69 1018.0
20260830214814 68 80 7.0 0.0 0.00 0.00 0.00 73 1018.0
20260830213314 68 80 7.0 0.0 0.00 0.00 0.00 73 1018.0
20260830211814 68 70 7.0 0.0 0.00 0.00 0.00 78 1018.0
20260830210314 68 70 7.0 0.0 0.00 0.00 0.00 78 1018.0
20260830204814 70 50 3.0 0.0 0.00 0.00 0.00 69 1017.0
20260830203314 70 50 3.0 0.0 0.00 0.00 0.00 69 1017.0
20260830201814 72 60 3.0 0.0 0.00 0.00 0.00 65 1017.0
20260830200314 72 60 3.0 0.0 0.00 0.00 0.00 65 1017.0
20260830194814 73 60 2.0 0.0 0.00 0.00 0.00 61 1017.0
20260830193314 73 60 2.0 0.0 0.00 0.00 0.00 61 1017.0
20260830191815 73 80 2.0 0.0 0.00 0.00 0.00 61 1017.0
20260830190315 73 80 2.0 0.0 0.00 0.00 0.00 61 1017.0
20260830184814 73 40 5.0 0.0 0.00 0.00 0.00 61 1017.0
20260830183343 73 40 5.0 0.0 0.00 0.00 0.00 61 1017.0
20260830181815 75 70 5.0 0.0 0.00 0.00 0.00 57 1017.0
20260830180314 75 70 5.0 0.0 0.00 0.00 0.00 57 1017.0
20260830174814 77 70 3.0 0.0 0.00 0.00 0.00 51 1017.0
20260830173314 77 70 3.0 0.0 0.00 0.00 0.00 51 1017.0
20260830171814 79 90 5.0 0.0 0.00 0.00 0.00 51 1016.0
20260830170314 79 90 5.0 0.0 0.00 0.00 0.00 51 1016.0
20260830164814 81 70 7.0 0.0 0.00 0.00 0.00 45 1016.0
20260830163314 81 70 7.0 0.0 0.00 0.00 0.00 45 1016.0
20260830161815 82 60 6.0 0.0 0.00 0.00 0.00 42 1016.0
20260830160314 82 60 6.0 0.0 0.00 0.00 0.00 42 1016.0
20260830154815 86 60 6.0 0.0 0.00 0.00 0.00 38 1016.0
20260830153314 86 60 6.0 0.0 0.00 0.00 0.00 38 1016.0
20260830151814 86 50 6.0 0.0 0.00 0.00 0.00 38 1016.0
20260830150316 86 50 6.0 0.0 0.00 0.00 0.00 38 1016.0
20260830144815 86 2.0 0.0 0.00 0.00 0.00 35 1016.0
20260830143314 86 2.0 0.0 0.00 0.00 0.00 35 1016.0
20260830141814 88 3.0 0.0 0.00 0.00 0.00 35 1017.0
20260830140313 88 3.0 0.0 0.00 0.00 0.00 35 1017.0
20260830134814 86 3.0 0.0 0.00 0.00 0.00 38 1017.0
20260830133327 86 3.0 0.0 0.00 0.00 0.00 38 1017.0
20260830131815 88 70 3.0 0.0 0.00 0.00 0.00 38 1017.0
20260830130314 88 70 3.0 0.0 0.00 0.00 0.00 38 1017.0
20260830124814 88 130 5.0 0.0 0.00 0.00 0.00 38 1017.0
20260830123313 88 130 5.0 0.0 0.00 0.00 0.00 38 1017.0
20260830121930 84 5.0 0.0 0.00 0.00 0.00 40 1017.0
20260830120314 84 5.0 0.0 0.00 0.00 0.00 40 1017.0
20260830114812 84 5.0 0.0 0.00 0.00 0.00 43 1018.0